| time (UTC) | temp F | wind direction | speed MPH | gust MPH | rain 1hr in | rain 24hr in | rain mn in | humidity % | barometer mb |
| 20260509014541 | 52 | 182 | 0.0 | 0.0 | 0.00 | 0.05 | 0.05 | 66 | 1011.9 |
| 20260509013050 | 52 | 182 | 0.0 | 1.0 | 0.00 | 0.05 | 0.05 | 65 | 1011.7 |
| 20260509011539 | 52 | 182 | 0.0 | 0.0 | 0.00 | 0.05 | 0.05 | 67 | 1011.7 |
| 20260509010038 | 52 | 182 | 0.0 | 0.0 | 0.00 | 0.05 | 0.05 | 66 | 1011.5 |
| 20260509004638 | 52 | 182 | 0.0 | 0.0 | 0.00 | 0.05 | 0.05 | 64 | 1011.4 |
| 20260509003057 | 52 | 182 | 0.0 | 0.0 | 0.00 | 0.05 | 0.05 | 64 | 1011.2 |
| 20260509001536 | 53 | 234 | 0.0 | 1.0 | 0.00 | 0.05 | 0.05 | 63 | 1011.0 |
| 20260509000038 | 54 | 273 | 0.0 | 0.0 | 0.00 | 0.05 | 0.05 | 62 | 1011.1 |
| 20260508234535 | 54 | 266 | 0.0 | 0.0 | 0.00 | 0.05 | 0.05 | 61 | 1010.9 |
| 20260508233035 | 55 | 266 | 0.0 | 0.0 | 0.00 | 0.05 | 0.05 | 61 | 1010.8 |
| 20260508231539 | 55 | 266 | 0.0 | 0.0 | 0.00 | 0.05 | 0.05 | 61 | 1010.8 |
| 20260508230034 | 55 | 266 | 0.0 | 0.0 | 0.00 | 0.05 | 0.05 | 61 | 1010.6 |
| 20260508224536 | 56 | 268 | 0.0 | 0.0 | 0.00 | 0.05 | 0.05 | 59 | 1010.4 |
| 20260508223033 | 56 | 266 | 0.0 | 1.0 | 0.00 | 0.05 | 0.05 | 58 | 1010.5 |
| 20260508221532 | 57 | 178 | 0.0 | 0.0 | 0.00 | 0.05 | 0.05 | 58 | 1010.4 |
| 20260508220032 | 57 | 265 | 0.0 | 0.0 | 0.00 | 0.05 | 0.05 | 59 | 1010.3 |
| 20260508214532 | 57 | 186 | 0.0 | 0.0 | 0.00 | 0.05 | 0.05 | 60 | 1010.3 |
| 20260508213033 | 56 | 261 | 0.0 | 0.0 | 0.00 | 0.05 | 0.05 | 60 | 1010.7 |
| 20260508211531 | 56 | 254 | 0.0 | 1.0 | 0.00 | 0.05 | 0.05 | 60 | 1010.7 |
| 20260508210032 | 56 | 254 | 0.0 | 1.0 | 0.00 | 0.05 | 0.05 | 59 | 1010.7 |
| 20260508204529 | 58 | 255 | 0.0 | 1.0 | 0.00 | 0.05 | 0.05 | 54 | 1010.7 |
| 20260508203029 | 59 | 259 | 0.0 | 0.0 | 0.00 | 0.05 | 0.05 | 52 | 1010.5 |
| 20260508201528 | 59 | 248 | 0.0 | 0.0 | 0.00 | 0.05 | 0.05 | 54 | 1010.5 |
| 20260508200030 | 58 | 258 | 0.0 | 0.0 | 0.01 | 0.05 | 0.05 | 63 | 1010.5 |
| 20260508194527 | 56 | 178 | 0.0 | 0.0 | 0.01 | 0.05 | 0.05 | 68 | 1010.8 |
| 20260508193027 | 53 | 274 | 0.0 | 0.0 | 0.01 | 0.05 | 0.05 | 70 | 1011.0 |
| 20260508191525 | 53 | 242 | 0.0 | 1.0 | 0.01 | 0.05 | 0.05 | 64 | 1011.3 |
| 20260508190036 | 56 | 264 | 0.0 | 3.0 | 0.00 | 0.04 | 0.04 | 55 | 1011.0 |
| 20260508184525 | 58 | 288 | 0.0 | 2.0 | 0.00 | 0.04 | 0.04 | 52 | 1010.7 |
| 20260508183024 | 57 | 227 | 0.0 | 0.0 | 0.00 | 0.04 | 0.04 | 57 | 1010.7 |
| 20260508181524 | 56 | 252 | 0.0 | 1.0 | 0.00 | 0.04 | 0.04 | 54 | 1010.4 |
| 20260508180025 | 57 | 259 | 0.0 | 1.0 | 0.00 | 0.04 | 0.04 | 55 | 1010.4 |
| 20260508174533 | 58 | 259 | 0.0 | 1.0 | 0.00 | 0.04 | 0.04 | 50 | 1010.2 |
| 20260508173022 | 57 | 101 | 0.0 | 1.0 | 0.00 | 0.04 | 0.04 | 51 | 1010.3 |
| 20260508171521 | 57 | 244 | 0.0 | 2.0 | 0.00 | 0.04 | 0.04 | 50 | 1010.4 |
| 20260508170021 | 58 | 346 | 0.0 | 1.0 | 0.00 | 0.04 | 0.04 | 49 | 1010.2 |
| 20260508164520 | 59 | 123 | 0.0 | 2.0 | 0.00 | 0.04 | 0.04 | 46 | 1010.3 |
| 20260508163036 | 59 | 242 | 0.0 | 0.0 | 0.00 | 0.04 | 0.04 | 47 | 1010.4 |
| 20260508161518 | 58 | 190 | 0.0 | 0.0 | 0.00 | 0.04 | 0.04 | 52 | 1010.7 |
| 20260508160023 | 58 | 236 | 0.0 | 0.0 | 0.00 | 0.04 | 0.04 | 51 | 1010.9 |
| 20260508154518 | 59 | 244 | 0.0 | 0.0 | 0.00 | 0.04 | 0.04 | 47 | 1011.0 |
| 20260508153025 | 60 | 226 | 0.0 | 0.0 | 0.00 | 0.04 | 0.04 | 52 | 1011.0 |
| 20260508151522 | 59 | 248 | 0.0 | 0.0 | 0.00 | 0.04 | 0.04 | 52 | 1011.0 |
| 20260508150008 | 57 | 248 | 0.0 | 0.0 | 0.00 | 0.04 | 0.04 | 59 | 1011.0 |
| 20260508144504 | 55 | 269 | 0.0 | 0.0 | 0.00 | 0.04 | 0.04 | 59 | 1011.3 |
| 20260508143100 | 53 | 228 | 0.0 | 0.0 | 0.00 | 0.04 | 0.04 | 63 | 1011.5 |
| 20260508141558 | 52 | 232 | 0.0 | 0.0 | 0.00 | 0.04 | 0.04 | 66 | 1011.5 |
| 20260508140053 | 51 | 219 | 0.0 | 0.0 | 0.00 | 0.04 | 0.04 | 69 | 1011.2 |
| 20260508134550 | 50 | 263 | 0.0 | 0.0 | 0.00 | 0.04 | 0.04 | 71 | 1011.3 |
| 20260508133050 | 49 | 239 | 0.0 | 0.0 | 0.00 | 0.04 | 0.04 | 72 | 1011.4 |
| 20260508131554 | 49 | 265 | 0.0 | 0.0 | 0.00 | 0.04 | 0.04 | 78 | 1011.5 |
| 20260508130056 | 48 | 175 | 0.0 | 0.0 | 0.00 | 0.04 | 0.04 | 81 | 1011.4 |
| 20260508124545 | 47 | 205 | 0.0 | 0.0 | 0.00 | 0.04 | 0.04 | 84 | 1011.5 |
| 20260508123045 | 46 | 244 | 0.0 | 0.0 | 0.00 | 0.04 | 0.04 | 87 | 1011.7 |
| 20260508121543 | 46 | 291 | 0.0 | 0.0 | 0.00 | 0.04 | 0.04 | 91 | 1011.7 |
| 20260508120044 | 45 | 303 | 0.0 | 0.0 | 0.00 | 0.04 | 0.04 | 91 | 1011.6 |
| 20260508114538 | 44 | 304 | 0.0 | 0.0 | 0.00 | 0.04 | 0.04 | 92 | 1011.4 |
| 20260508113044 | 43 | 304 | 0.0 | 0.0 | 0.00 | 0.04 | 0.04 | 91 | 1011.2 |
| 20260508111536 | 43 | 304 | 0.0 | 0.0 | 0.00 | 0.04 | 0.04 | 91 | 1011.2 |
| 20260508110046 | 43 | 304 | 0.0 | 0.0 | 0.00 | 0.04 | 0.04 | 91 | 1011.1 |
| 20260508104529 | 43 | 304 | 0.0 | 0.0 | 0.00 | 0.04 | 0.04 | 90 | 1011.0 |
| 20260508103035 | 43 | 304 | 0.0 | 0.0 | 0.00 | 0.04 | 0.04 | 90 | 1010.9 |
| 20260508101534 | 43 | 304 | 0.0 | 0.0 | 0.00 | 0.04 | 0.04 | 90 | 1010.8 |
| 20260508100023 | 43 | 304 | 0.0 | 0.0 | 0.00 | 0.04 | 0.04 | 90 | 1010.7 |
| 20260508094522 | 43 | 304 | 0.0 | 0.0 | 0.00 | 0.04 | 0.04 | 89 | 1010.6 |
| 20260508093038 | 43 | 295 | 0.0 | 0.0 | 0.00 | 0.04 | 0.04 | 89 | 1010.5 |
| 20260508091523 | 43 | 295 | 0.0 | 0.0 | 0.00 | 0.04 | 0.04 | 89 | 1010.3 |
| 20260508090028 | 44 | 295 | 0.0 | 0.0 | 0.00 | 0.04 | 0.04 | 89 | 1010.2 |
| 20260508084518 | 43 | 296 | 0.0 | 0.0 | 0.00 | 0.09 | 0.04 | 89 | 1010.0 |
| 20260508083024 | 43 | 294 | 0.0 | 0.0 | 0.00 | 0.09 | 0.04 | 88 | 1010.2 |
| 20260508081516 | 43 | 294 | 0.0 | 0.0 | 0.00 | 0.09 | 0.04 | 88 | 1010.1 |
| 20260508080016 | 43 | 294 | 0.0 | 0.0 | 0.01 | 0.09 | 0.04 | 88 | 1010.1 |
| 20260508074516 | 44 | 294 | 0.0 | 0.0 | 0.01 | 0.16 | 0.04 | 88 | 1010.1 |
| 20260508073011 | 44 | 291 | 0.0 | 0.0 | 0.02 | 0.16 | 0.04 | 87 | 1010.4 |
| 20260508071508 | 45 | 290 | 0.0 | 0.0 | 0.04 | 0.16 | 0.04 | 85 | 1010.4 |
| 20260508070006 | 45 | 290 | 0.0 | 0.0 | 0.03 | 0.15 | 0.03 | 82 | 1010.7 |
| 20260508064509 | 46 | 290 | 0.0 | 0.0 | 0.03 | 0.22 | 0.03 | 79 | 1010.8 |
| 20260508063100 | 47 | 288 | 0.0 | 0.0 | 0.02 | 0.21 | 0.02 | 74 | 1010.8 |
| 20260508061606 | 49 | 267 | 0.0 | 0.0 | 0.00 | 0.19 | 0.00 | 62 | 1010.5 |
| 20260508060051 | 49 | 257 | 0.0 | 0.0 | 0.00 | 0.19 | 0.00 | 55 | 1010.0 |
| 20260508054609 | 49 | 360 | 0.0 | 1.0 | 0.00 | 0.21 | 0.00 | 51 | 1008.5 |
| 20260508053047 | 49 | 51 | 0.0 | 1.0 | 0.00 | 0.21 | 0.00 | 53 | 1008.5 |
| 20260508051545 | 49 | 58 | 0.0 | 0.0 | 0.00 | 0.21 | 0.00 | 53 | 1008.4 |
| 20260508050048 | 49 | 17 | 0.0 | 0.0 | 0.00 | 0.21 | 0.00 | 53 | 1008.5 |
| 20260508044555 | 49 | 42 | 0.0 | 0.0 | 0.00 | 0.21 | 0.00 | 55 | 1008.3 |
| 20260508043043 | 49 | 68 | 0.0 | 0.0 | 0.00 | 0.21 | 0.00 | 56 | 1008.2 |
| 20260508041550 | 49 | 65 | 0.0 | 0.0 | 0.00 | 0.21 | 0.00 | 55 | 1008.4 |
| 20260508040042 | 50 | 67 | 0.0 | 0.0 | 0.00 | 0.21 | 0.00 | 54 | 1008.4 |
| 20260508034539 | 50 | 67 | 0.0 | 1.0 | 0.00 | 0.21 | 0.21 | 54 | 1008.4 |
| 20260508033038 | 51 | 13 | 0.0 | 1.0 | 0.00 | 0.21 | 0.21 | 52 | 1008.5 |
| 20260508031541 | 51 | 11 | 0.0 | 0.0 | 0.00 | 0.21 | 0.21 | 51 | 1008.3 |
| 20260508030040 | 51 | 15 | 0.0 | 0.0 | 0.00 | 0.21 | 0.21 | 51 | 1008.3 |
| 20260508024533 | 52 | 15 | 0.0 | 0.0 | 0.00 | 0.21 | 0.21 | 51 | 1008.4 |
| 20260508023041 | 52 | 15 | 0.0 | 0.0 | 0.00 | 0.21 | 0.21 | 49 | 1008.5 |
| 20260508021535 | 52 | 15 | 0.0 | 0.0 | 0.00 | 0.21 | 0.21 | 49 | 1008.3 |
| 20260508020031 | 52 | 14 | 0.0 | 0.0 | 0.00 | 0.21 | 0.21 | 48 | 1008.3 |